Find Badr B

NORAD ID: 27003 Int'l Des: 2001-056 Owner: SUPA Country: PK operational
LEOCIRCULARRETROGRADESSO

リアルタイム位置

3D地球を読み込み中...

Badr Bについて

説明を読み込み中...

次回通過

Passes for default location (London). Set your location on the main map for personalized predictions.

高度履歴

Loading altitude history...

軌道要素

1 27003U 01056C 26104.75504359 -.00000016 00000-0 34979-4 0 9999
2 27003 99.8003 279.2224 0019537 300.3909 59.5305 13.70404894217254
Epoch: Apr 14, 2026 • Age: 13 hours

現在のステータス

高度 1011.4 km
速度 7.35 km/s
衛星直下点 -46.23°S, 133.6°E
打ち上げ日 Dec 10, 2001
運用期間 24.3 years
タイプ other

技術仕様

分類 Payload
質量 69.00 kg
乾燥質量 69.00 kg
総質量 69.00 kg
長さ 0.50 m
直径 0.50 m
スパン 6.50 m
形状 Box + Ant
製造者 SIL
バスタイプ microSIL
フェーズステータス In Orbit
所有者/国 SUPA/PK

Most Searched